Time,TemperatureF,DewpointF,PressureIn,WindDirection,WindDirectionDegrees,WindSpeedMPH,WindSpeedGustMPH,Humidity,HourlyPrecipIn,Conditions,Clouds,dailyrainin,SoftwareType,DateUTC
2013-07-21 00:07:00,79.9,67.1,29.79,South,180,4.7,-999.0,65,-99.99,,,0.00,Acu-Link.com,2013-07-21 05:07:00,
2013-07-21 00:22:00,79.5,67.1,29.80,SE,135,3.7,-999.0,66,-99.99,,,0.00,Acu-Link.com,2013-07-21 05:22:00,
2013-07-21 00:37:00,79.0,67.1,29.80,ESE,112,5.3,-999.0,67,-99.99,,,0.00,Acu-Link.com,2013-07-21 05:37:00,
2013-07-21 00:53:00,78.6,66.7,29.80,SSW,202,2.2,-999.0,67,-99.99,,,0.00,Acu-Link.com,2013-07-21 05:53:00,
2013-07-21 01:08:00,77.7,67.5,29.80,SSE,157,1.7,-999.0,71,-99.99,,,0.00,Acu-Link.com,2013-07-21 06:08:00,
2013-07-21 01:23:00,77.2,67.5,29.79,SE,135,1.7,-999.0,72,-99.99,,,0.00,Acu-Link.com,2013-07-21 06:23:00,
2013-07-21 01:38:00,76.6,67.3,29.80,SSE,157,1.1,-999.0,73,-99.99,,,0.00,Acu-Link.com,2013-07-21 06:38:00,
2013-07-21 01:54:00,76.3,67.4,29.79,SE,135,2.2,-999.0,74,-99.99,,,0.00,Acu-Link.com,2013-07-21 06:54:00,
2013-07-21 02:09:00,76.1,67.6,29.79,South,180,2.2,-999.0,75,-99.99,,,0.00,Acu-Link.com,2013-07-21 07:09:00,
2013-07-21 02:24:00,75.6,67.9,29.79,South,180,2.2,-999.0,77,-99.99,,,0.00,Acu-Link.com,2013-07-21 07:24:00,
2013-07-21 02:39:00,75.0,67.7,29.80,SSE,157,0.0,-999.0,78,-99.99,,,0.00,Acu-Link.com,2013-07-21 07:39:00,
2013-07-21 02:54:00,74.7,68.1,29.80,SSW,202,0.0,-999.0,80,-99.99,,,0.00,Acu-Link.com,2013-07-21 07:54:00,
2013-07-21 03:11:00,74.3,67.7,29.80,SSW,202,0.0,-999.0,80,-99.99,,,0.00,Acu-Link.com,2013-07-21 08:11:00,
2013-07-21 03:26:00,74.3,68.1,29.80,SSE,157,1.7,-999.0,81,-99.99,,,0.00,Acu-Link.com,2013-07-21 08:26:00,
2013-07-21 03:41:00,73.9,68.0,29.80,South,180,0.0,-999.0,82,-99.99,,,0.00,Acu-Link.com,2013-07-21 08:41:00,
2013-07-21 03:56:00,73.8,68.3,29.81,SE,135,3.7,-999.0,83,-99.99,,,0.00,Acu-Link.com,2013-07-21 08:56:00,
2013-07-21 04:12:00,73.8,68.3,29.81,SSE,157,2.2,-999.0,83,-99.99,,,0.00,Acu-Link.com,2013-07-21 09:12:00,
2013-07-21 04:27:00,73.6,68.5,29.81,SSE,157,2.2,-999.0,84,-99.99,,,0.00,Acu-Link.com,2013-07-21 09:27:00,
2013-07-21 04:42:00,73.6,68.8,29.80,SE,135,2.7,-999.0,85,-99.99,,,0.00,Acu-Link.com,2013-07-21 09:42:00,
2013-07-21 04:57:00,73.6,68.8,29.81,SSE,157,2.7,-999.0,85,-99.99,,,0.00,Acu-Link.com,2013-07-21 09:57:00,
2013-07-21 05:13:00,73.6,69.1,29.81,South,180,2.2,-999.0,86,-99.99,,,0.00,Acu-Link.com,2013-07-21 10:13:00,
2013-07-21 05:28:00,73.2,69.1,29.81,SSE,157,2.2,-999.0,87,-99.99,,,0.00,Acu-Link.com,2013-07-21 10:28:00,
2013-07-21 05:43:00,72.9,68.8,29.81,SSE,157,0.0,-999.0,87,-99.99,,,0.00,Acu-Link.com,2013-07-21 10:43:00,
2013-07-21 05:58:00,72.5,69.1,29.81,SSE,157,2.7,-999.0,89,-99.99,,,0.00,Acu-Link.com,2013-07-21 10:58:00,
2013-07-21 06:14:00,72.1,68.7,29.81,SSE,157,0.0,-999.0,89,-99.99,,,0.00,Acu-Link.com,2013-07-21 11:14:00,
2013-07-21 06:29:00,71.8,68.7,29.81,SSE,157,1.1,-999.0,90,-99.99,,,0.00,Acu-Link.com,2013-07-21 11:29:00,
2013-07-21 06:44:00,71.8,68.7,29.81,SE,135,0.0,-999.0,90,-99.99,,,0.00,Acu-Link.com,2013-07-21 11:44:00,
2013-07-21 06:59:00,71.6,68.8,29.82,SE,135,1.1,-999.0,91,-99.99,,,0.00,Acu-Link.com,2013-07-21 11:59:00,
2013-07-21 07:15:00,72.0,69.2,29.82,SSE,157,0.0,-999.0,91,-99.99,,,0.00,Acu-Link.com,2013-07-21 12:15:00,
2013-07-21 07:30:00,73.0,69.9,29.83,SE,135,0.0,-999.0,90,-99.99,,,0.00,Acu-Link.com,2013-07-21 12:30:00,
2013-07-21 07:45:00,73.8,70.3,29.82,SW,225,0.0,-999.0,89,-99.99,,,0.00,Acu-Link.com,2013-07-21 12:45:00,
2013-07-21 08:01:00,74.7,70.2,29.82,SE,135,0.0,-999.0,86,-99.99,,,0.00,Acu-Link.com,2013-07-21 13:01:00,
2013-07-21 08:16:00,75.7,70.5,29.82,West,270,2.7,-999.0,84,-99.99,,,0.00,Acu-Link.com,2013-07-21 13:16:00,
2013-07-21 08:32:00,76.8,70.5,29.84,SW,225,4.7,-999.0,81,-99.99,,,0.00,Acu-Link.com,2013-07-21 13:32:00,
2013-07-21 08:47:00,80.2,71.1,29.83,SW,225,2.2,-999.0,74,-99.99,,,0.00,Acu-Link.com,2013-07-21 13:47:00,
2013-07-21 09:03:00,81.5,71.6,29.84,WSW,247,3.7,-999.0,72,-99.99,,,0.00,Acu-Link.com,2013-07-21 14:03:00,
2013-07-21 09:18:00,82.0,71.2,29.84,SSW,202,4.2,-999.0,70,-99.99,,,0.00,Acu-Link.com,2013-07-21 14:18:00,
2013-07-21 09:33:00,83.5,71.8,29.84,SW,225,2.7,-999.0,68,-99.99,,,0.00,Acu-Link.com,2013-07-21 14:33:00,
2013-07-21 09:49:00,85.8,72.2,29.82,NNW,337,2.2,-999.0,64,-99.99,,,0.00,Acu-Link.com,2013-07-21 14:49:00,
2013-07-21 10:04:00,86.0,71.9,29.83,NNW,337,1.7,-999.0,63,-99.99,,,0.00,Acu-Link.com,2013-07-21 15:04:00,
2013-07-21 10:19:00,87.1,71.5,29.83,SW,225,4.2,-999.0,60,-99.99,,,0.00,Acu-Link.com,2013-07-21 15:19:00,
2013-07-21 10:34:00,88.9,72.2,29.83,South,180,4.7,-999.0,58,-99.99,,,0.00,Acu-Link.com,2013-07-21 15:34:00,
2013-07-21 10:49:00,90.3,72.4,29.82,SSW,202,2.7,-999.0,56,-99.99,,,0.00,Acu-Link.com,2013-07-21 15:49:00,
2013-07-21 11:04:00,90.0,71.6,29.82,SSW,202,2.2,-999.0,55,-99.99,,,0.00,Acu-Link.com,2013-07-21 16:04:00,
2013-07-21 11:19:00,92.8,71.4,29.81,SSE,157,1.7,-999.0,50,-99.99,,,0.00,Acu-Link.com,2013-07-21 16:19:00,
2013-07-21 11:34:00,93.2,71.2,29.82,SW,225,4.2,-999.0,49,-99.99,,,0.00,Acu-Link.com,2013-07-21 16:34:00,
2013-07-21 11:50:00,90.7,70.6,29.81,SW,225,2.2,-999.0,52,-99.99,,,0.00,Acu-Link.com,2013-07-21 16:50:00,
2013-07-21 12:05:00,91.9,70.6,29.81,SW,225,5.8,-999.0,50,-99.99,,,0.00,Acu-Link.com,2013-07-21 17:05:00,
2013-07-21 12:20:00,91.0,69.7,29.81,SSW,202,5.3,-999.0,50,-99.99,,,0.00,Acu-Link.com,2013-07-21 17:20:00,
2013-07-21 12:36:00,94.1,69.5,29.80,ESE,112,3.7,-999.0,45,-99.99,,,0.00,Acu-Link.com,2013-07-21 17:36:00,
2013-07-21 12:51:00,94.3,71.5,29.79,ESE,112,2.2,-999.0,48,-99.99,,,0.00,Acu-Link.com,2013-07-21 17:51:00,
2013-07-21 13:06:00,93.0,69.7,29.80,SW,225,5.8,-999.0,47,-99.99,,,0.00,Acu-Link.com,2013-07-21 18:06:00,
2013-07-21 13:21:00,96.8,69.9,29.79,SE,135,2.2,-999.0,42,-99.99,,,0.00,Acu-Link.com,2013-07-21 18:21:00,
2013-07-21 13:36:00,97.7,68.5,29.78,SSW,202,4.7,-999.0,39,-99.99,,,0.00,Acu-Link.com,2013-07-21 18:36:00,
2013-07-21 13:52:00,95.2,67.7,29.77,SW,225,3.2,-999.0,41,-99.99,,,0.00,Acu-Link.com,2013-07-21 18:52:00,
2013-07-21 14:07:00,97.0,68.6,29.77,SSE,157,4.7,-999.0,40,-99.99,,,0.00,Acu-Link.com,2013-07-21 19:07:00,
2013-07-21 14:22:00,94.5,67.1,29.76,West,270,3.2,-999.0,41,-99.99,,,0.00,Acu-Link.com,2013-07-21 19:22:00,
2013-07-21 14:38:00,99.0,68.9,29.77,SSE,157,1.7,-999.0,38,-99.99,,,0.00,Acu-Link.com,2013-07-21 19:38:00,
2013-07-21 14:53:00,96.4,68.1,29.75,SSE,157,5.8,-999.0,40,-99.99,,,0.00,Acu-Link.com,2013-07-21 19:53:00,
2013-07-21 15:08:00,96.1,67.1,29.75,WNW,292,4.7,-999.0,39,-99.99,,,0.00,Acu-Link.com,2013-07-21 20:08:00,
2013-07-21 15:23:00,98.2,67.4,29.74,SE,135,2.2,-999.0,37,-99.99,,,0.00,Acu-Link.com,2013-07-21 20:23:00,
2013-07-21 15:38:00,97.5,67.6,29.74,SE,135,2.7,-999.0,38,-99.99,,,0.00,Acu-Link.com,2013-07-21 20:38:00,
2013-07-21 15:54:00,99.1,68.2,29.74,WSW,247,2.7,-999.0,37,-99.99,,,0.00,Acu-Link.com,2013-07-21 20:54:00,
2013-07-21 16:09:00,99.7,67.1,29.74,WSW,247,2.7,-999.0,35,-99.99,,,0.00,Acu-Link.com,2013-07-21 21:09:00,
2013-07-21 16:24:00,99.3,66.8,29.73,SSE,157,4.2,-999.0,35,-99.99,,,0.00,Acu-Link.com,2013-07-21 21:24:00,
2013-07-21 16:40:00,97.7,66.2,29.73,West,270,2.7,-999.0,36,-99.99,,,0.00,Acu-Link.com,2013-07-21 21:40:00,
2013-07-21 16:55:00,99.1,66.6,29.72,SE,135,2.2,-999.0,35,-99.99,,,0.00,Acu-Link.com,2013-07-21 21:55:00,
2013-07-21 17:10:00,102.7,67.1,29.72,SSE,157,4.7,-999.0,32,-99.99,,,0.00,Acu-Link.com,2013-07-21 22:10:00,
2013-07-21 17:25:00,104.9,68.1,29.73,SSE,157,2.7,-999.0,31,-99.99,,,0.00,Acu-Link.com,2013-07-21 22:25:00,
2013-07-21 17:40:00,103.1,68.3,29.71,SE,135,4.2,-999.0,33,-99.99,,,0.00,Acu-Link.com,2013-07-21 22:40:00,
2013-07-21 17:56:00,101.7,67.1,29.70,NNE,22,0.0,-999.0,33,-99.99,,,0.00,Acu-Link.com,2013-07-21 22:56:00,
2013-07-21 18:11:00,99.5,66.9,29.70,ESE,112,3.7,-999.0,35,-99.99,,,0.00,Acu-Link.com,2013-07-21 23:11:00,
2013-07-21 18:26:00,98.8,67.1,29.70,SSW,202,0.0,-999.0,36,-99.99,,,0.00,Acu-Link.com,2013-07-21 23:26:00,
2013-07-21 18:41:00,95.4,67.2,29.70,SW,225,0.0,-999.0,40,-99.99,,,0.00,Acu-Link.com,2013-07-21 23:41:00,
2013-07-21 18:57:00,93.6,67.0,29.70,WNW,292,4.7,-999.0,42,-99.99,,,0.00,Acu-Link.com,2013-07-21 23:57:00,
2013-07-21 19:13:00,94.8,68.1,29.70,SW,225,4.2,-999.0,42,-99.99,,,0.00,Acu-Link.com,2013-07-22 00:13:00,
2013-07-21 19:28:00,93.4,67.5,29.71,SSW,202,3.2,-999.0,43,-99.99,,,0.00,Acu-Link.com,2013-07-22 00:28:00,
2013-07-21 19:43:00,91.9,67.5,29.72,SSW,202,0.0,-999.0,45,-99.99,,,0.00,Acu-Link.com,2013-07-22 00:43:00,
2013-07-21 19:58:00,88.2,68.9,29.74,SSE,157,6.3,-999.0,53,-99.99,,,0.00,Acu-Link.com,2013-07-22 00:58:00,
2013-07-21 20:14:00,81.0,71.9,29.74,SE,135,8.9,-999.0,74,-99.99,,,0.00,Acu-Link.com,2013-07-22 01:14:00,
2013-07-21 20:29:00,78.3,72.7,29.76,SSE,157,6.8,-999.0,83,-99.99,,,0.07,Acu-Link.com,2013-07-22 01:29:00,
2013-07-21 20:44:00,77.7,72.1,29.76,SSE,157,4.7,-999.0,83,-99.99,,,0.12,Acu-Link.com,2013-07-22 01:44:00,
2013-07-21 21:00:00,78.1,72.5,29.75,SSE,157,2.2,-999.0,83,-99.99,,,0.13,Acu-Link.com,2013-07-22 02:00:00,
2013-07-21 21:15:00,77.0,72.8,29.76,SE,135,3.2,-999.0,87,-99.99,,,0.13,Acu-Link.com,2013-07-22 02:15:00,
2013-07-21 21:30:00,76.3,72.5,29.76,ESE,112,2.7,-999.0,88,-99.99,,,0.13,Acu-Link.com,2013-07-22 02:30:00,
2013-07-21 21:46:00,75.9,72.7,29.78,SE,135,1.1,-999.0,90,-99.99,,,0.13,Acu-Link.com,2013-07-22 02:46:00,
2013-07-21 22:01:00,75.7,72.6,29.78,SSE,157,2.2,-999.0,90,-99.99,,,0.13,Acu-Link.com,2013-07-22 03:01:00,
2013-07-21 22:16:00,75.9,72.1,29.78,ESE,112,0.0,-999.0,88,-99.99,,,0.13,Acu-Link.com,2013-07-22 03:16:00,
2013-07-21 22:32:00,76.1,72.3,29.80,SSW,202,0.0,-999.0,88,-99.99,,,0.13,Acu-Link.com,2013-07-22 03:32:00,
2013-07-21 22:47:00,76.1,71.9,29.80,SSE,157,0.0,-999.0,87,-99.99,,,0.13,Acu-Link.com,2013-07-22 03:47:00,
2013-07-21 23:02:00,75.7,71.9,29.81,South,180,3.7,-999.0,88,-99.99,,,0.13,Acu-Link.com,2013-07-22 04:02:00,
2013-07-21 23:17:00,75.6,71.8,29.80,SW,225,3.2,-999.0,88,-99.99,,,0.13,Acu-Link.com,2013-07-22 04:17:00,
2013-07-21 23:33:00,75.9,71.1,29.82,South,180,1.1,-999.0,85,-99.99,,,0.13,Acu-Link.com,2013-07-22 04:33:00,
2013-07-21 23:48:00,75.7,71.2,29.81,SSE,157,1.1,-999.0,86,-99.99,,,0.13,Acu-Link.com,2013-07-22 04:48:00,